Time,TemperatureF,DewpointF,PressureIn,WindDirection,WindDirectionDegrees,WindSpeedMPH,WindSpeedGustMPH,Humidity,HourlyPrecipIn,Conditions,Clouds,dailyrainin,SoftwareType,DateUTC
2014-10-20 00:04:00,0.0,0.0,30.66,South,191,7.0,7.0,0,0.00,RA,OVC,0.00,Misterhouse,2014-10-20 07:04:00,
2014-10-20 00:10:00,0.0,0.0,30.66,South,183,6.0,8.0,0,0.00,RA,OVC,0.00,Misterhouse,2014-10-20 07:10:00,
2014-10-20 00:16:00,0.0,0.0,30.66,South,180,7.0,8.0,0,0.00,RA,OVC,0.00,Misterhouse,2014-10-20 07:16:00,
2014-10-20 00:22:00,0.0,0.0,30.66,South,173,7.0,9.0,0,0.00,RA,OVC,0.00,Misterhouse,2014-10-20 07:22:00,
2014-10-20 00:28:00,0.0,0.0,30.66,SSW,209,9.0,9.0,0,0.00,RA,OVC,0.00,Misterhouse,2014-10-20 07:28:00,
2014-10-20 00:34:00,0.0,0.0,30.66,SSW,199,8.0,8.0,0,0.00,RA,OVC,0.00,Misterhouse,2014-10-20 07:34:00,
2014-10-20 00:40:00,0.0,0.0,30.66,SSW,200,8.0,13.0,0,0.00,RA,OVC,0.00,Misterhouse,2014-10-20 07:40:00,
2014-10-20 00:46:00,0.0,0.0,30.66,South,181,7.0,8.0,0,0.00,RA,OVC,0.00,Misterhouse,2014-10-20 07:46:00,
2014-10-20 00:52:00,0.0,0.0,30.66,South,187,10.0,10.0,0,0.00,RA,OVC,0.00,Misterhouse,2014-10-20 07:52:00,
2014-10-20 00:58:00,0.0,0.0,30.66,South,186,9.0,9.0,0,0.00,RA,OVC,0.00,Misterhouse,2014-10-20 07:58:00,
2014-10-20 01:04:00,0.0,0.0,30.66,SSW,201,10.0,13.0,0,0.00,RA,OVC,0.00,Misterhouse,2014-10-20 08:04:00,
2014-10-20 01:10:00,0.0,0.0,30.66,SSW,207,10.0,10.0,0,0.00,RA,OVC,0.00,Misterhouse,2014-10-20 08:10:00,
2014-10-20 01:16:00,0.0,0.0,30.66,SSW,199,7.0,7.0,0,0.00,RA,OVC,0.00,Misterhouse,2014-10-20 08:16:00,
2014-10-20 01:22:00,0.0,0.0,30.66,South,187,6.0,8.0,0,0.00,RA,OVC,0.00,Misterhouse,2014-10-20 08:22:00,
2014-10-20 01:28:00,0.0,0.0,30.66,SSW,199,7.0,8.0,0,0.00,RA,OVC,0.00,Misterhouse,2014-10-20 08:28:00,
2014-10-20 01:34:00,0.0,0.0,30.66,SSW,201,4.0,4.0,0,0.00,RA,OVC,0.00,Misterhouse,2014-10-20 08:34:00,
2014-10-20 01:40:00,0.0,0.0,30.66,South,185,6.0,6.0,0,0.00,RA,OVC,0.00,Misterhouse,2014-10-20 08:40:00,
2014-10-20 01:46:00,0.0,0.0,30.66,South,186,6.0,6.0,0,0.00,RA,OVC,0.00,Misterhouse,2014-10-20 08:46:00,
2014-10-20 01:52:00,0.0,0.0,30.66,South,177,6.0,6.0,0,0.00,RA,OVC,0.00,Misterhouse,2014-10-20 08:52:00,
2014-10-20 01:58:00,0.0,0.0,30.66,SSW,198,5.0,5.0,0,0.00,RA,OVC,0.00,Misterhouse,2014-10-20 08:58:00,
2014-10-20 02:04:00,0.0,0.0,30.66,South,184,9.0,9.0,0,0.00,RA,OVC,0.00,Misterhouse,2014-10-20 09:04:00,
2014-10-20 02:10:00,0.0,0.0,30.66,South,172,8.0,8.0,0,0.00,RA,OVC,0.00,Misterhouse,2014-10-20 09:10:00,
2014-10-20 02:16:00,0.0,0.0,30.66,South,187,5.0,7.0,0,0.00,RA,OVC,0.00,Misterhouse,2014-10-20 09:16:00,
2014-10-20 02:22:00,0.0,0.0,30.66,South,171,6.0,6.0,0,0.00,RA,OVC,0.00,Misterhouse,2014-10-20 09:22:00,
2014-10-20 02:28:00,0.0,0.0,30.66,SSW,206,7.0,8.0,0,0.00,RA,OVC,0.00,Misterhouse,2014-10-20 09:28:00,
2014-10-20 02:34:00,0.0,0.0,30.66,SSW,198,7.0,8.0,0,0.00,RA,OVC,0.00,Misterhouse,2014-10-20 09:34:00,
2014-10-20 02:40:00,0.0,0.0,30.66,SSW,195,6.0,6.0,0,0.00,RA,OVC,0.00,Misterhouse,2014-10-20 09:40:00,
2014-10-20 02:46:00,0.0,0.0,30.66,SSW,204,8.0,10.0,0,0.00,RA,OVC,0.00,Misterhouse,2014-10-20 09:46:00,
2014-10-20 02:52:00,0.0,0.0,30.66,SSW,198,8.0,8.0,0,0.00,RA,OVC,0.00,Misterhouse,2014-10-20 09:52:00,
2014-10-20 02:58:00,0.0,0.0,30.66,SSW,200,8.0,11.0,0,0.00,RA,OVC,0.00,Misterhouse,2014-10-20 09:58:00,
2014-10-20 03:04:00,0.0,0.0,30.66,South,184,9.0,11.0,0,0.00,RA,OVC,0.00,Misterhouse,2014-10-20 10:04:00,
2014-10-20 03:10:00,0.0,0.0,30.66,SSE,159,8.0,10.0,0,0.00,RA,OVC,0.00,Misterhouse,2014-10-20 10:10:00,
2014-10-20 03:16:00,0.0,0.0,30.66,SSW,209,8.0,11.0,0,0.00,RA,OVC,0.00,Misterhouse,2014-10-20 10:16:00,
2014-10-20 03:22:00,0.0,0.0,30.66,SSE,158,8.0,10.0,0,0.00,RA,OVC,0.00,Misterhouse,2014-10-20 10:22:00,
2014-10-20 03:28:00,0.0,0.0,30.66,South,180,9.0,9.0,0,0.00,RA,OVC,0.00,Misterhouse,2014-10-20 10:28:00,
2014-10-20 03:34:00,0.0,0.0,30.66,SSW,202,11.0,11.0,0,0.00,RA,OVC,0.00,Misterhouse,2014-10-20 10:34:00,
2014-10-20 03:40:00,0.0,0.0,30.66,SSE,151,9.0,9.0,0,0.00,RA,OVC,0.00,Misterhouse,2014-10-20 10:40:00,
2014-10-20 03:46:00,0.0,0.0,30.66,SSW,202,9.0,13.0,0,0.00,RA,OVC,0.00,Misterhouse,2014-10-20 10:46:00,
2014-10-20 03:52:00,0.0,0.0,30.66,South,172,10.0,10.0,0,0.00,RA,OVC,0.00,Misterhouse,2014-10-20 10:52:00,
2014-10-20 03:58:00,0.0,0.0,30.66,South,190,9.0,13.0,0,0.00,RA,OVC,0.00,Misterhouse,2014-10-20 10:58:00,
2014-10-20 04:04:00,0.0,0.0,30.66,SSW,196,8.0,8.0,0,0.00,RA,OVC,0.00,Misterhouse,2014-10-20 11:04:00,
2014-10-20 04:10:00,0.0,0.0,30.66,South,176,10.0,10.0,0,0.00,RA,OVC,0.00,Misterhouse,2014-10-20 11:10:00,
2014-10-20 04:16:00,0.0,0.0,30.66,South,176,7.0,8.0,0,0.00,RA,OVC,0.00,Misterhouse,2014-10-20 11:16:00,
2014-10-20 04:22:00,0.0,0.0,30.66,South,172,9.0,9.0,0,0.00,RA,OVC,0.00,Misterhouse,2014-10-20 11:22:00,
2014-10-20 04:28:00,0.0,0.0,30.66,South,189,9.0,10.0,0,0.00,RA,OVC,0.00,Misterhouse,2014-10-20 11:28:00,
2014-10-20 04:34:00,0.0,0.0,30.66,South,170,7.0,8.0,0,0.00,RA,OVC,0.00,Misterhouse,2014-10-20 11:34:00,
2014-10-20 04:40:00,0.0,0.0,30.66,South,171,8.0,8.0,0,0.00,RA,OVC,0.00,Misterhouse,2014-10-20 11:40:00,
2014-10-20 04:46:00,0.0,0.0,30.66,South,181,7.0,10.0,0,0.00,RA,OVC,0.00,Misterhouse,2014-10-20 11:46:00,
2014-10-20 04:52:00,0.0,0.0,30.66,SSW,197,8.0,10.0,0,0.00,RA,OVC,0.00,Misterhouse,2014-10-20 11:52:00,
2014-10-20 04:58:00,0.0,0.0,30.66,South,185,8.0,8.0,0,0.00,RA,OVC,0.00,Misterhouse,2014-10-20 11:58:00,
2014-10-20 05:04:00,0.0,0.0,30.66,South,187,8.0,8.0,0,0.00,RA,OVC,0.00,Misterhouse,2014-10-20 12:04:00,
2014-10-20 05:10:00,0.0,0.0,30.66,South,184,8.0,8.0,0,0.00,RA,OVC,0.00,Misterhouse,2014-10-20 12:10:00,
2014-10-20 05:16:00,0.0,0.0,30.66,South,177,6.0,6.0,0,0.00,RA,OVC,0.00,Misterhouse,2014-10-20 12:16:00,
2014-10-20 05:22:00,0.0,0.0,30.66,South,191,5.0,5.0,0,0.00,RA,OVC,0.00,Misterhouse,2014-10-20 12:22:00,
2014-10-20 05:28:00,0.0,0.0,30.66,South,189,6.0,6.0,0,0.00,RA,OVC,0.00,Misterhouse,2014-10-20 12:28:00,
2014-10-20 05:34:00,0.0,0.0,30.66,SSW,198,6.0,8.0,0,0.00,RA,OVC,0.00,Misterhouse,2014-10-20 12:34:00,
2014-10-20 05:40:00,0.0,0.0,30.66,SSE,165,6.0,6.0,0,0.00,RA,OVC,0.00,Misterhouse,2014-10-20 12:40:00,
2014-10-20 05:46:00,0.0,0.0,30.66,SSE,167,0.0,0.0,0,0.00,RA,OVC,0.00,Misterhouse,2014-10-20 12:46:00,
2014-10-20 05:52:00,0.0,0.0,30.66,South,180,0.0,0.0,0,0.00,RA,OVC,0.00,Misterhouse,2014-10-20 12:52:00,
2014-10-20 05:58:00,0.0,0.0,30.66,South,184,5.0,5.0,0,0.00,RA,OVC,0.00,Misterhouse,2014-10-20 12:58:00,
2014-10-20 06:04:00,0.0,0.0,30.66,South,184,5.0,5.0,0,0.00,RA,OVC,0.00,Misterhouse,2014-10-20 13:04:00,
2014-10-20 06:10:00,0.0,0.0,30.66,South,178,3.0,3.0,0,0.00,RA,OVC,0.00,Misterhouse,2014-10-20 13:10:00,
2014-10-20 06:16:00,0.0,0.0,30.66,South,179,0.0,0.0,0,0.00,RA,OVC,0.00,Misterhouse,2014-10-20 13:16:00,
2014-10-20 06:22:00,0.0,0.0,30.66,South,179,2.0,0.0,0,0.00,RA,OVC,0.00,Misterhouse,2014-10-20 13:22:00,
2014-10-20 06:28:00,0.0,0.0,30.66,South,179,0.0,0.0,0,0.00,RA,OVC,0.00,Misterhouse,2014-10-20 13:28:00,
2014-10-20 06:34:00,0.0,0.0,30.66,South,179,0.0,0.0,0,0.00,RA,OVC,0.00,Misterhouse,2014-10-20 13:34:00,
2014-10-20 06:40:00,0.0,0.0,30.66,South,179,0.0,0.0,0,0.00,RA,OVC,0.00,Misterhouse,2014-10-20 13:40:00,
2014-10-20 06:46:00,0.0,0.0,30.66,South,179,0.0,0.0,0,0.00,RA,OVC,0.00,Misterhouse,2014-10-20 13:46:00,
2014-10-20 06:52:00,0.0,0.0,30.66,South,179,0.0,0.0,0,0.00,RA,OVC,0.00,Misterhouse,2014-10-20 13:52:00,
2014-10-20 06:58:00,0.0,0.0,30.66,South,179,0.0,0.0,0,0.00,RA,OVC,0.00,Misterhouse,2014-10-20 13:58:00,
2014-10-20 07:04:00,0.0,0.0,30.66,South,179,0.0,0.0,0,0.00,RA,OVC,0.00,Misterhouse,2014-10-20 14:04:00,
2014-10-20 07:10:00,0.0,0.0,30.66,South,179,0.0,0.0,0,0.00,RA,OVC,0.00,Misterhouse,2014-10-20 14:10:00,
2014-10-20 07:16:00,0.0,0.0,30.66,South,180,2.0,2.0,0,0.00,RA,OVC,0.00,Misterhouse,2014-10-20 14:16:00,
2014-10-20 07:22:00,0.0,0.0,30.66,South,179,4.0,4.0,0,0.00,RA,OVC,0.00,Misterhouse,2014-10-20 14:22:00,
2014-10-20 07:28:00,0.0,0.0,30.69,South,183,4.0,5.0,0,0.00,BC,SCT,0.00,Misterhouse,2014-10-20 14:28:00,
2014-10-20 07:34:00,0.0,0.0,30.69,South,186,6.0,6.0,0,0.00,BC,SCT,0.00,Misterhouse,2014-10-20 14:34:00,
2014-10-20 07:40:00,0.0,0.0,30.69,SSE,161,4.0,4.0,0,0.00,BC,SCT,0.00,Misterhouse,2014-10-20 14:40:00,
2014-10-20 07:46:00,0.0,0.0,30.69,SSE,161,0.0,0.0,0,0.00,BC,SCT,0.00,Misterhouse,2014-10-20 14:46:00,
2014-10-20 07:52:00,0.0,0.0,30.69,SSE,166,0.0,0.0,0,0.00,BC,SCT,0.00,Misterhouse,2014-10-20 14:52:00,
2014-10-20 07:58:00,0.0,0.0,30.69,South,169,5.0,5.0,0,0.00,BC,SCT,0.00,Misterhouse,2014-10-20 14:58:00,
2014-10-20 08:04:00,0.0,0.0,30.69,South,173,5.0,6.0,0,0.00,BC,SCT,0.00,Misterhouse,2014-10-20 15:04:00,
2014-10-20 08:10:00,0.0,0.0,30.69,South,177,5.0,7.0,0,0.00,BC,SCT,0.00,Misterhouse,2014-10-20 15:10:00,
2014-10-20 08:16:00,0.0,0.0,30.69,South,188,3.0,4.0,0,0.00,BC,SCT,0.00,Misterhouse,2014-10-20 15:16:00,
2014-10-20 08:22:00,0.0,0.0,30.69,South,171,4.0,5.0,0,0.00,BC,SCT,0.00,Misterhouse,2014-10-20 15:22:00,
2014-10-20 08:28:00,0.0,0.0,30.69,South,180,0.0,0.0,0,0.00,BC,SCT,0.00,Misterhouse,2014-10-20 15:28:00,
2014-10-20 08:34:00,0.0,0.0,30.69,South,180,0.0,0.0,0,0.00,BC,SCT,0.00,Misterhouse,2014-10-20 15:34:00,
2014-10-20 08:40:00,0.0,0.0,30.69,South,180,0.0,0.0,0,0.00,BC,SCT,0.00,Misterhouse,2014-10-20 15:40:00,
2014-10-20 08:46:00,0.0,0.0,30.69,South,180,0.0,0.0,0,0.00,BC,SCT,0.00,Misterhouse,2014-10-20 15:46:00,
2014-10-20 08:52:00,0.0,0.0,30.69,South,180,0.0,0.0,0,0.00,BC,SCT,0.00,Misterhouse,2014-10-20 15:52:00,
2014-10-20 08:58:00,0.0,0.0,30.69,South,183,4.0,4.0,0,0.00,BC,SCT,0.00,Misterhouse,2014-10-20 15:58:00,
2014-10-20 09:04:00,0.0,0.0,30.69,SSW,197,4.0,4.0,0,0.00,BC,SCT,0.00,Misterhouse,2014-10-20 16:04:00,
2014-10-20 09:10:00,0.0,0.0,30.72,SSW,205,4.0,6.0,0,0.00,BC,SCT,0.00,Misterhouse,2014-10-20 16:10:00,
2014-10-20 09:16:00,0.0,0.0,30.72,South,188,4.0,6.0,0,0.00,BC,SCT,0.00,Misterhouse,2014-10-20 16:16:00,
2014-10-20 09:22:00,0.0,0.0,30.72,South,173,5.0,5.0,0,0.00,BC,SCT,0.00,Misterhouse,2014-10-20 16:22:00,
2014-10-20 09:28:00,0.0,0.0,30.72,WSW,240,4.0,8.0,0,0.00,BC,SCT,0.00,Misterhouse,2014-10-20 16:28:00,
2014-10-20 09:34:00,0.0,0.0,30.72,SSW,213,3.0,3.0,0,0.00,BC,SCT,0.00,Misterhouse,2014-10-20 16:34:00,
2014-10-20 09:40:00,0.0,0.0,30.72,SW,214,0.0,4.0,0,0.00,BC,SCT,0.00,Misterhouse,2014-10-20 16:40:00,
2014-10-20 09:46:00,0.0,0.0,30.72,SW,217,0.0,4.0,0,0.00,BC,SCT,0.00,Misterhouse,2014-10-20 16:46:00,
2014-10-20 09:52:00,0.0,0.0,30.72,SW,219,3.0,3.0,0,0.00,BC,SCT,0.00,Misterhouse,2014-10-20 16:52:00,
2014-10-20 09:58:00,0.0,0.0,30.72,South,171,5.0,6.0,0,0.00,BC,SCT,0.00,Misterhouse,2014-10-20 16:58:00,
2014-10-20 10:04:00,0.0,0.0,30.72,ESE,120,7.0,8.0,0,0.00,BC,SCT,0.00,Misterhouse,2014-10-20 17:04:00,
2014-10-20 10:10:00,0.0,0.0,30.72,SSE,153,4.0,6.0,0,0.00,BC,SCT,0.00,Misterhouse,2014-10-20 17:10:00,
2014-10-20 10:16:00,0.0,0.0,30.72,SSW,207,4.0,4.0,0,0.00,BC,SCT,0.00,Misterhouse,2014-10-20 17:16:00,
2014-10-20 10:22:00,0.0,0.0,30.72,SW,220,5.0,5.0,0,0.00,BC,SCT,0.00,Misterhouse,2014-10-20 17:22:00,
2014-10-20 10:28:00,0.0,0.0,30.72,SSW,206,8.0,8.0,0,0.00,BC,SCT,0.00,Misterhouse,2014-10-20 17:28:00,
2014-10-20 10:34:00,0.0,0.0,30.72,SSW,199,3.0,3.0,0,0.00,BC,SCT,0.00,Misterhouse,2014-10-20 17:34:00,
2014-10-20 10:40:00,0.0,0.0,30.72,SSE,149,4.0,4.0,0,0.00,BC,SCT,0.00,Misterhouse,2014-10-20 17:40:00,
2014-10-20 10:46:00,0.0,0.0,30.72,WSW,250,6.0,6.0,0,0.00,BC,SCT,0.00,Misterhouse,2014-10-20 17:46:00,
2014-10-20 10:52:00,0.0,0.0,30.72,WSW,249,4.0,6.0,0,0.00,BC,SCT,0.00,Misterhouse,2014-10-20 17:52:00,
2014-10-20 10:58:00,0.0,0.0,30.72,West,264,4.0,6.0,0,0.00,BC,SCT,0.00,Misterhouse,2014-10-20 17:58:00,
2014-10-20 11:04:00,0.0,0.0,30.72,WSW,248,10.0,11.0,0,0.00,BC,SCT,0.00,Misterhouse,2014-10-20 18:04:00,
2014-10-20 11:10:00,0.0,0.0,30.69,WSW,244,5.0,5.0,0,0.00,BC,SCT,0.00,Misterhouse,2014-10-20 18:10:00,
2014-10-20 11:16:00,0.0,0.0,30.69,SSE,161,9.0,9.0,0,0.00,BC,SCT,0.00,Misterhouse,2014-10-20 18:16:00,
2014-10-20 11:22:00,0.0,0.0,30.69,SSW,203,7.0,7.0,0,0.00,BC,SCT,0.00,Misterhouse,2014-10-20 18:22:00,
2014-10-20 11:28:00,0.0,0.0,30.72,SSW,203,3.0,3.0,0,0.00,BC,SCT,0.00,Misterhouse,2014-10-20 18:28:00,
2014-10-20 11:34:00,0.0,0.0,30.72,West,266,6.0,6.0,0,0.00,BC,SCT,0.00,Misterhouse,2014-10-20 18:34:00,
2014-10-20 11:40:00,0.0,0.0,30.69,South,172,9.0,9.0,0,0.00,BC,SCT,0.00,Misterhouse,2014-10-20 18:40:00,
2014-10-20 11:46:00,0.0,0.0,30.69,SSE,156,9.0,9.0,0,0.00,BC,SCT,0.00,Misterhouse,2014-10-20 18:46:00,
2014-10-20 11:52:00,0.0,0.0,30.69,South,185,5.0,5.0,0,0.00,BC,SCT,0.00,Misterhouse,2014-10-20 18:52:00,
2014-10-20 11:58:00,0.0,0.0,30.69,West,262,4.0,5.0,0,0.00,BC,SCT,0.00,Misterhouse,2014-10-20 18:58:00,
2014-10-20 12:04:00,0.0,0.0,30.69,SW,222,4.0,4.0,0,0.00,BC,SCT,0.00,Misterhouse,2014-10-20 19:04:00,
2014-10-20 12:10:00,0.0,0.0,30.69,SW,224,9.0,9.0,0,0.00,BC,SCT,0.00,Misterhouse,2014-10-20 19:10:00,
2014-10-20 12:16:00,0.0,0.0,30.69,WSW,258,4.0,4.0,0,0.00,BC,SCT,0.00,Misterhouse,2014-10-20 19:16:00,
2014-10-20 12:22:00,0.0,0.0,30.69,SSE,164,6.0,6.0,0,0.00,BC,SCT,0.00,Misterhouse,2014-10-20 19:22:00,
2014-10-20 12:28:00,0.0,0.0,30.69,South,185,7.0,8.0,0,0.00,BC,SCT,0.00,Misterhouse,2014-10-20 19:28:00,
2014-10-20 12:34:00,0.0,0.0,30.69,South,181,8.0,8.0,0,0.00,BC,SCT,0.00,Misterhouse,2014-10-20 19:34:00,
2014-10-20 12:40:00,0.0,0.0,30.69,SSW,207,9.0,15.0,0,0.00,BC,SCT,0.00,Misterhouse,2014-10-20 19:40:00,
2014-10-20 12:46:00,0.0,0.0,30.69,SW,226,8.0,8.0,0,0.00,BC,SCT,0.00,Misterhouse,2014-10-20 19:46:00,
2014-10-20 12:52:00,0.0,0.0,30.69,SSW,200,13.0,13.0,0,0.00,BC,SCT,0.00,Misterhouse,2014-10-20 19:52:00,
2014-10-20 12:58:00,0.0,0.0,30.69,WSW,255,9.0,9.0,0,0.00,BC,SCT,0.00,Misterhouse,2014-10-20 19:58:00,
2014-10-20 13:04:00,0.0,0.0,30.69,SSW,206,8.0,8.0,0,0.00,BC,SCT,0.00,Misterhouse,2014-10-20 20:04:00,
2014-10-20 13:10:00,0.0,0.0,30.66,SW,223,9.0,9.0,0,0.00,BC,SCT,0.00,Misterhouse,2014-10-20 20:10:00,
2014-10-20 13:16:00,0.0,0.0,30.66,South,187,8.0,8.0,0,0.00,BC,SCT,0.00,Misterhouse,2014-10-20 20:16:00,
2014-10-20 13:22:00,0.0,0.0,30.66,WSW,238,8.0,8.0,0,0.00,BC,SCT,0.00,Misterhouse,2014-10-20 20:22:00,
2014-10-20 13:28:00,0.0,0.0,30.66,WSW,240,9.0,9.0,0,0.00,BC,SCT,0.00,Misterhouse,2014-10-20 20:28:00,
2014-10-20 13:34:00,0.0,0.0,30.66,SSW,203,9.0,9.0,0,0.00,BC,SCT,0.00,Misterhouse,2014-10-20 20:34:00,
2014-10-20 13:40:00,0.0,0.0,30.66,SSW,208,8.0,8.0,0,0.00,BC,SCT,0.00,Misterhouse,2014-10-20 20:40:00,
2014-10-20 13:46:00,0.0,0.0,30.66,SW,218,10.0,10.0,0,0.00,BC,SCT,0.00,Misterhouse,2014-10-20 20:46:00,
2014-10-20 13:52:00,0.0,0.0,30.66,WSW,253,9.0,9.0,0,0.00,BC,SCT,0.00,Misterhouse,2014-10-20 20:52:00,
2014-10-20 13:58:00,0.0,0.0,30.66,South,188,5.0,5.0,0,0.00,BC,SCT,0.00,Misterhouse,2014-10-20 20:58:00,
2014-10-20 14:04:00,0.0,0.0,30.66,SSW,195,7.0,13.0,0,0.00,BC,SCT,0.00,Misterhouse,2014-10-20 21:04:00,
2014-10-20 14:10:00,0.0,0.0,30.66,SSW,207,5.0,5.0,0,0.00,BC,SCT,0.00,Misterhouse,2014-10-20 21:10:00,
2014-10-20 14:16:00,0.0,0.0,30.66,SSW,209,10.0,10.0,0,0.00,BC,SCT,0.00,Misterhouse,2014-10-20 21:16:00,
2014-10-20 14:22:00,0.0,0.0,30.66,SW,227,8.0,8.0,0,0.00,BC,SCT,0.00,Misterhouse,2014-10-20 21:22:00,
2014-10-20 14:28:00,0.0,0.0,30.66,SSW,201,8.0,11.0,0,0.00,BC,SCT,0.00,Misterhouse,2014-10-20 21:28:00,
2014-10-20 14:34:00,0.0,0.0,30.66,SW,231,6.0,6.0,0,0.00,BC,SCT,0.00,Misterhouse,2014-10-20 21:34:00,
2014-10-20 14:40:00,0.0,0.0,30.66,SSW,206,6.0,6.0,0,0.00,BC,SCT,0.00,Misterhouse,2014-10-20 21:40:00,
2014-10-20 14:46:00,0.0,0.0,30.66,SSW,210,9.0,13.0,0,0.00,BC,SCT,0.00,Misterhouse,2014-10-20 21:46:00,
2014-10-20 14:52:00,0.0,0.0,30.66,SW,220,10.0,11.0,0,0.00,BC,SCT,0.00,Misterhouse,2014-10-20 21:52:00,
2014-10-20 14:58:00,0.0,0.0,30.66,WSW,241,9.0,9.0,0,0.00,BC,SCT,0.00,Misterhouse,2014-10-20 21:58:00,
2014-10-20 15:04:00,0.0,0.0,30.66,SW,220,8.0,8.0,0,0.00,BC,SCT,0.00,Misterhouse,2014-10-20 22:04:00,
2014-10-20 15:10:00,0.0,0.0,30.66,WSW,240,10.0,10.0,0,0.00,BC,SCT,0.00,Misterhouse,2014-10-20 22:10:00,
2014-10-20 15:16:00,0.0,0.0,30.66,WSW,246,11.0,11.0,0,0.00,BC,SCT,0.00,Misterhouse,2014-10-20 22:16:00,
2014-10-20 15:22:00,0.0,0.0,30.66,SW,232,11.0,11.0,0,0.00,BC,SCT,0.00,Misterhouse,2014-10-20 22:22:00,
2014-10-20 15:28:00,0.0,0.0,30.66,WSW,253,8.0,9.0,0,0.00,BC,SCT,0.00,Misterhouse,2014-10-20 22:28:00,
2014-10-20 15:36:00,0.0,0.0,30.66,WSW,251,8.0,8.0,0,0.00,BC,SCT,0.00,Misterhouse,2014-10-20 22:36:00,
2014-10-20 15:42:00,0.0,0.0,30.66,South,176,9.0,11.0,0,0.00,BC,SCT,0.00,Misterhouse,2014-10-20 22:42:00,
2014-10-20 15:50:00,0.0,0.0,30.66,SSW,207,8.0,11.0,0,0.00,BC,SCT,0.00,Misterhouse,2014-10-20 22:50:00,
2014-10-20 15:56:00,0.0,0.0,30.66,SSE,156,9.0,9.0,0,0.00,BC,SCT,0.00,Misterhouse,2014-10-20 22:56:00,
2014-10-20 16:02:00,0.0,0.0,30.66,SW,231,11.0,11.0,0,0.00,BC,SCT,0.00,Misterhouse,2014-10-20 23:02:00,
2014-10-20 16:08:00,0.0,0.0,30.66,SSW,204,5.0,6.0,0,0.00,BC,SCT,0.00,Misterhouse,2014-10-20 23:08:00,
2014-10-20 16:14:00,0.0,0.0,30.66,SW,232,8.0,8.0,0,0.00,BC,SCT,0.00,Misterhouse,2014-10-20 23:14:00,
2014-10-20 16:20:00,0.0,0.0,30.66,SW,235,8.0,8.0,0,0.00,BC,SCT,0.00,Misterhouse,2014-10-20 23:20:00,
2014-10-20 16:26:00,0.0,0.0,30.66,SSE,154,9.0,9.0,0,0.00,BC,SCT,0.00,Misterhouse,2014-10-20 23:26:00,
2014-10-20 16:32:00,0.0,0.0,30.66,SSE,168,10.0,10.0,0,0.00,BC,SCT,0.00,Misterhouse,2014-10-20 23:32:00,
2014-10-20 16:38:00,0.0,0.0,30.66,WSW,239,8.0,9.0,0,0.00,BC,SCT,0.00,Misterhouse,2014-10-20 23:38:00,
2014-10-20 16:44:00,0.0,0.0,30.66,SSW,212,5.0,5.0,0,0.00,BC,SCT,0.00,Misterhouse,2014-10-20 23:44:00,
2014-10-20 16:50:00,0.0,0.0,30.66,South,178,11.0,11.0,0,0.00,BC,SCT,0.00,Misterhouse,2014-10-20 23:50:00,
2014-10-20 16:56:00,0.0,0.0,30.66,SSW,203,10.0,15.0,0,0.00,BC,SCT,0.00,Misterhouse,2014-10-20 23:56:00,
2014-10-20 17:02:00,0.0,0.0,30.66,SSW,204,11.0,11.0,0,0.00,BC,SCT,0.00,Misterhouse,2014-10-21 00:02:00,
2014-10-20 17:08:00,0.0,0.0,30.66,SW,216,6.0,9.0,0,0.00,BC,SCT,0.00,Misterhouse,2014-10-21 00:08:00,
2014-10-20 17:14:00,0.0,0.0,30.66,SSE,160,7.0,8.0,0,0.00,BC,SCT,0.00,Misterhouse,2014-10-21 00:14:00,
2014-10-20 17:20:00,0.0,0.0,30.66,WSW,243,11.0,11.0,0,0.00,BC,SCT,0.00,Misterhouse,2014-10-21 00:20:00,
2014-10-20 17:26:00,0.0,0.0,30.63,South,185,10.0,10.0,0,0.00,RA,OVC,0.00,Misterhouse,2014-10-21 00:26:00,
2014-10-20 17:32:00,0.0,0.0,30.63,WSW,249,8.0,11.0,0,0.00,RA,OVC,0.00,Misterhouse,2014-10-21 00:32:00,
2014-10-20 17:38:00,0.0,0.0,30.63,South,180,10.0,10.0,0,0.00,RA,OVC,0.00,Misterhouse,2014-10-21 00:38:00,
2014-10-20 17:44:00,0.0,0.0,30.66,South,172,9.0,9.0,0,0.00,RA,OVC,0.00,Misterhouse,2014-10-21 00:44:00,
2014-10-20 17:50:00,0.0,0.0,30.66,SSW,200,7.0,7.0,0,0.00,RA,OVC,0.00,Misterhouse,2014-10-21 00:50:00,
2014-10-20 17:56:00,0.0,0.0,30.66,SSE,166,11.0,11.0,0,0.00,RA,OVC,0.00,Misterhouse,2014-10-21 00:56:00,
2014-10-20 18:02:00,0.0,0.0,30.66,SSE,167,9.0,9.0,0,0.00,RA,OVC,0.00,Misterhouse,2014-10-21 01:02:00,
2014-10-20 18:08:00,0.0,0.0,30.66,South,176,9.0,10.0,0,0.00,RA,OVC,0.00,Misterhouse,2014-10-21 01:08:00,
2014-10-20 18:14:00,0.0,0.0,30.66,South,173,9.0,11.0,0,0.00,RA,OVC,0.00,Misterhouse,2014-10-21 01:14:00,
2014-10-20 18:20:00,0.0,0.0,30.66,South,171,9.0,11.0,0,0.00,RA,OVC,0.00,Misterhouse,2014-10-21 01:20:00,
2014-10-20 18:26:00,0.0,0.0,30.66,South,173,9.0,11.0,0,0.00,RA,OVC,0.00,Misterhouse,2014-10-21 01:26:00,